SCP
2 2 2 3 2 2 2 2 1 1 0 0 0 0 0 1 1 1 1 1 1 1 1 0 0 0 0 1 1 1 1 0 0 0 0 0 0 0 0 1 1 0 0
3 2 2 2 2 2 2 2 1 1 0 0 0 0 0 1 1 1 1 1 1 1 0 0 0 0 0 1 1 1 0 0 0 0 0 0 0 0 0 1 1 0 0
3 2 2 2 2 2 2 2 1 1 0 0 0 0 0 1 1 1 1 1 1 0 0 0 0 0 0 0 0 0 0 0 0 0 0 0 0 0 0 0 0 0 0
3 2 2 2 2 2 2 2 1 1 1 0 0 0 0 0 1 1 1 1 0 0 0 0 0 0 0 0 0 0 0 0 0 0 0 0 0 0 0 0 0 0 0
2 2 2 1 2 2 2 2 1 1 1 0 0 0 0 0 1 1 1 1 1 0 0 0 0 0 0 0 0 0 0 0 0 0 0 0 0 0 0 1 1 1 1
2 2 2 1 1 2 2 2 2 1 1 1 1 1 1 0 1 1 1 1 1 1 0 0 0 1 1 1 1 0 0 0 0 0 0 0 0 0 1 1 1 1 1
1 2 2 1 1 1 2 2 2 1 1 1 1 1 1 1 0 1 1 1 1 1 1 0 0 1 1 1 1 1 0 0 0 0 0 0 0 0 1 1 1 1 1
1 1 2 1 1 1 1 2 2 1 1 1 1 1 1 1 0 1 1 1 1 1 1 1 1 1 1 1 1 1 1 0 0 0 0 0 0 0 1 1 1 1 1
1 1 1 1 1 1 1 1 1 1 1 1 1 1 1 1 0 1 1 1 1 1 1 1 1 0 1 1 1 1 0 0 0 0 0 0 0 0 1 1 1 1 1
1 1 1 1 1 1 1 1 1 1 1 1 1 1 1 0 0 1 1 1 1 1 1 1 1 0 0 1 1 1 0 0 0 0 0 0 0 1 1 1 1 1 1
1 1 1 1 1 1 1 1 1 1 1 1 1 1 1 1 1 1 0 0 1 1 1 1 1 1 0 0 0 0 0 0 0 0 0 0 1 1 1 1 1 1 1
1 1 1 1 1 1 1 1 1 1 1 1 1 1 1 1 1 1 0 0 0 0 1 1 1 1 0 0 0 0 0 0 0 0 0 0 1 1 1 1 1 1 1
1 1 1 1 1 1 1 1 1 1 1 1 1 1 1 1 1 1 0 0 0 0 0 1 1 0 0 0 0 0 0 0 0 0 0 0 0 1 1 1 1 1 1
1 1 1 1 1 1 1 1 1 1 1 1 1 1 1 1 1 1 0 0 0 0 0 0 0 0 0 0 0 0 0 0 0 0 0 0 0 0 0 1 1 1 1
1 1 1 1 1 1 1 1 1 1 1 1 1 1 1 2 2 1 1 0 0 0 0 0 0 0 0 0 0 0 0 0 0 0 0 0 0 0 0 0 0 1 1
1 1 1 1 1 1 1 1 1 1 1 1 1 1 1 2 2 1 1 0 0 0 0 0 0 0 0 0 0 0 0 0 0 0 0 0 0 0 0 0 0 1 1
1 1 1 0 0 1 1 1 1 1 0 0 0 0 1 2 2 1 0 0 0 0 0 0 0 0 0 0 0 0 0 0 0 0 0 0 0 0 0 0 0 0 0
0 0 0 0 0 0 1 1 1 1 0 0 0 0 1 1 1 1 0 0 0 0 0 0 0 0 0 0 0 0 0 0 0 0 0 0 0 0 0 0 0 0 0
0 0 0 0 0 0 0 1 1 0 0 0 0 0 1 1 1 1 0 0 0 0 0 0 0 0 0 0 0 0 0 0 0 0 0 0 0 0 0 0 0 0 0
0 0 0 0 0 0 0 0 0 0 0 0 0 0 0 1 1 1 0 0 0 0 0 0 0 0 0 0 0 0 0 0 0 0 0 0 0 0 0 0 0 0 0
0 0 0 0 0 0 0 0 0 0 0 0 0 0 0 1 1 1 0 0 0 0 0 0 0 0 0 0 0 0 0 0 0 0 0 0 0 0 0 0 0 0 0
0 0 0 0 0 0 0 0 0 0 0 0 0 0 0 0 1 1 0 0 0 0 0 0 0 0 0 0 0 0 0 0 0 0 0 0 0 0 0 0 0 0 0
0 0 0 0 0 0 0 0 0 0 0 0 0 0 0 0 1 0 0 0 0 0 0 0 0 0 0 0 0 0 0 0 0 0 0 0 0 0 0 0 0 0 0
0 0 0 0 0 0 0 0 0 0 0 0 0 0 0 0 0 0 0 0 0 0 0 0 0 0 0 0 0 0 0 0 0 0 0 0 0 0 0 0 0 0 0
0 0 0 0 0 0 0 0 0 0 0 0 0 0 0 0 0 0 0 0 0 0 0 0 0 0 0 0 0 0 0 0 0 0 0 0 0 0 0 0 0 0 0
0 0 0 0 0 0 0 0 0 0 0 0 0 0 0 0 0 0 0 0 0 0 0 0 0 0 0 0 0 0 0 0 0 0 0 0 0 0 0 0 0 0 0
Wind_Speed
5 7 7 7 8 9 8 8 8 8 8 8 8 8 8 8 8 8 9 9 9 9 9 10 10 10 11 11 11 11 11 11 11 11 11 11 11 11 11 11 9 7 10
6 8 7 7 9 9 8 8 8 8 7 7 7 7 7 8 8 8 8 9 9 9 9 10 10 10 11 11 11 10 10 10 9 9 9 8 9 10 10 10 10 6 10
7 8 7 7 8 8 8 8 8 7 7 7 7 7 7 7 7 8 8 8 8 8 9 9 9 9 10 10 9 9 9 9 9 8 7 3 5 9 10 10 10 9 9
7 7 7 7 8 8 8 8 8 7 7 7 7 7 7 7 7 7 7 7 7 7 8 8 8 8 9 8 8 8 8 8 8 7 4 4 4 8 9 9 9 8 8
6 6 8 8 8 8 8 8 7 7 6 6 6 6 6 6 7 7 7 7 7 7 7 7 7 7 7 7 7 7 7 7 7 5 3 3 3 7 8 8 8 8 8
6 6 8 8 8 8 7 7 7 6 6 6 6 5 6 6 6 6 7 7 6 6 6 6 6 6 6 6 5 6 6 7 6 3 3 3 3 6 7 8 8 7 7
5 6 7 7 7 7 7 7 6 6 5 5 5 5 5 5 6 6 6 6 6 5 6 5 5 5 5 5 4 5 6 6 3 2 2 3 4 6 6 7 7 7 7
5 5 6 6 7 7 6 6 6 6 5 4 4 5 4 4 4 5 5 5 5 5 5 4 4 4 4 3 4 4 5 5 3 2 2 2 4 5 5 5 5 6 6
4 4 4 4 5 5 5 5 5 5 4 4 4 4 4 3 3 4 4 4 4 4 4 4 4 3 3 3 3 4 5 5 3 2 2 2 4 4 4 4 4 5 5
3 3 3 4 4 4 4 4 5 5 4 4 4 3 2 2 3 3 3 3 3 3 3 3 3 3 2 2 3 4 4 4 2 2 1 2 4 3 4 4 4 4 4
3 3 3 3 3 3 4 5 5 4 4 4 3 3 2 1 2 2 3 3 2 2 2 2 2 2 2 2 3 3 3 1 1 1 1 2 3 3 3 4 4 4 4
3 3 3 3 3 3 3 4 3 3 3 2 2 2 1 1 1 1 2 2 1 0 1 1 1 2 2 1 2 2 1 1 1 1 1 2 3 3 4 4 4 4 4
4 3 3 3 3 3 2 2 2 2 2 2 2 1 1 1 1 1 1 1 1 1 0 1 1 1 1 1 1 1 1 1 1 1 1 3 3 4 4 4 4 4 4
4 4 3 3 3 3 2 2 2 2 2 2 2 1 1 1 1 1 1 1 1 1 0 0 0 1 1 1 1 1 1 1 1 1 1 3 4 4 4 4 5 5 5
4 4 4 4 4 3 2 2 2 2 2 2 2 1 1 1 1 1 1 1 1 1 1 0 0 1 1 2 1 1 1 1 1 1 1 2 3 5 5 5 6 5 5
4 4 4 4 4 3 3 2 2 2 2 2 2 2 2 1 1 1 1 1 1 1 1 1 1 1 1 1 1 1 1 1 1 1 0 1 3 4 6 6 6 6 6
4 4 5 5 4 4 3 3 2 2 2 2 2 2 2 1 1 1 1 1 1 0 1 0 0 1 1 1 1 1 1 1 1 1 1 1 1 2 4 5 6 6 6
3 4 4 4 4 4 4 3 2 2 2 2 2 2 2 2 2 1 1 1 1 0 0 1 1 0 1 1 1 2 2 1 2 2 2 1 1 1 2 4 5 6 6
4 4 4 4 4 4 4 3 2 2 2 2 2 2 2 2 2 1 1 1 1 1 1 1 0 1 1 1 2 2 2 2 2 2 2 2 1 1 0 1 3 5 7
4 4 4 4 4 3 3 2 2 2 2 1 2 2 2 2 2 1 1 2 2 1 1 0 1 1 1 1 2 3 3 3 3 2 2 1 1 1 0 1 1 2 5
3 4 4 4 3 3 3 3 2 2 2 2 2 2 2 2 2 2 1 2 2 2 2 2 1 1 1 0 1 2 3 3 3 2 2 1 1 1 1 2 1 0 2
4 4 4 3 3 3 3 2 2 2 2 2 2 2 2 2 3 2 2 2 2 2 2 2 1 1 1 1 0 1 2 3 2 2 1 2 2 1 2 2 1 1 1
3 3 3 3 3 3 2 2 1 1 1 1 1 1 2 2 3 3 2 2 2 2 3 3 2 2 1 2 1 1 1 2 3 2 2 2 1 2 2 2 2 2 2
2 2 3 3 3 2 3 3 3 2 2 2 1 1 1 2 2 3 3 2 2 2 2 3 2 2 2 2 2 2 2 2 1 3 3 2 2 3 3 2 2 2 2
2 2 2 3 3 2 2 3 3 2 2 1 1 1 1 1 2 2 2 2 2 2 2 2 2 2 2 2 2 2 2 2 2 3 5 4 3 3 3 3 2 2 3
2 2 2 3 2 3 3 3 3 3 2 2 1 2 1 1 1 1 2 2 2 2 3 3 3 3 3 3 2 2 2 2 3 3 4 5 5 4 3 3 3 3 2
Wind_Direction
109 118 123 115 115 113 107 103 101 99 95 91 88 85 81 79 79 80 77 75 74 72 71 72 71 69 67 64 61 58 56 52 49 49 49 52 57 57 52 47 47 46 49
113 122 125 116 117 114 109 106 104 101 98 94 91 87 84 81 80 83 82 79 75 72 73 72 71 69 68 65 61 57 54 50 45 43 43 45 53 55 52 47 47 49 48
110 123 129 117 117 113 110 106 107 106 101 98 95 90 85 83 82 81 84 82 79 76 73 72 70 68 69 65 61 56 50 44 37 32 31 40 55 56 53 47 48 49 46
113 125 129 119 119 115 111 105 102 104 101 99 96 92 87 81 79 77 80 82 81 78 73 71 69 67 67 63 59 52 45 37 29 22 26 39 50 58 54 49 48 46 44
105 115 122 122 122 119 115 111 105 101 98 98 95 91 87 81 79 77 76 79 79 76 72 69 67 65 64 60 54 46 36 26 20 15 21 36 47 58 50 46 45 43 41
100 106 120 125 126 123 119 115 111 107 102 99 98 92 88 85 81 77 77 75 75 73 72 69 63 62 61 58 50 37 24 17 10 9 18 34 46 52 46 41 41 40 39
100 104 120 123 127 126 125 121 116 112 108 103 99 94 92 92 88 84 79 72 69 69 67 65 59 60 56 52 43 28 12 5 7 6 19 34 50 48 42 36 33 31 31
101 107 118 124 126 128 129 127 125 120 115 109 101 95 95 97 94 90 84 75 67 65 64 62 56 54 51 43 30 13 359 354 358 2 12 40 53 45 36 29 22 23 23
101 107 119 133 133 132 131 131 128 122 118 111 100 96 90 93 98 90 82 79 68 62 58 54 50 45 39 25 10 358 349 339 333 326 11 40 56 41 27 22 14 11 9
109 115 132 140 142 147 144 140 132 127 121 114 103 100 104 112 119 113 96 84 69 60 50 42 41 34 23 6 345 336 329 326 309 342 13 40 41 22 12 8 0 356 355
139 141 147 145 150 157 154 144 140 138 137 136 130 140 162 168 139 133 109 96 81 58 41 32 21 3 347 331 312 306 314 299 336 26 20 32 20 359 356 354 347 342 338
168 164 159 156 154 149 155 150 155 159 159 163 150 160 185 134 119 118 122 137 143 105 358 359 326 317 306 294 302 307 299 311 320 44 25 20 1 344 341 342 340 336 329
174 166 157 155 149 143 149 158 155 152 157 163 156 158 146 134 140 135 135 146 158 152 103 3 325 300 312 318 311 303 311 329 347 32 20 9 347 331 328 330 329 328 330
174 176 165 155 155 156 155 164 153 150 160 161 158 164 144 147 151 147 152 163 162 140 152 255 296 326 328 320 310 304 315 331 352 40 28 358 335 317 314 315 318 320 324
184 178 171 159 164 159 155 168 156 160 167 161 149 167 149 158 174 161 185 172 179 163 167 206 308 295 317 314 309 314 312 332 325 345 21 354 331 316 308 306 308 311 314
184 179 168 166 170 165 165 165 166 163 162 159 158 166 169 175 185 188 204 200 201 186 166 185 245 272 268 294 295 296 286 293 286 297 262 332 328 317 308 304 303 307 309
181 176 172 174 173 171 173 177 169 168 163 165 166 170 172 183 191 193 192 197 199 196 177 184 231 284 286 307 294 283 276 273 272 275 272 255 288 314 309 306 304 305 308
176 175 176 177 176 178 177 178 177 170 164 168 168 170 173 184 183 181 182 200 168 162 192 190 178 289 291 290 298 287 274 259 257 253 258 258 260 282 304 311 317 316 314
178 171 170 172 178 181 182 176 175 167 168 171 166 168 175 181 184 173 180 185 171 160 194 221 182 191 268 294 291 291 270 253 247 250 245 242 249 260 222 321 321 321 314
167 166 169 171 175 173 173 171 165 162 172 166 169 175 172 182 181 170 185 184 176 165 181 194 232 272 236 268 301 299 282 261 245 236 233 222 221 238 255 281 284 308 310
155 157 165 171 168 160 169 174 173 185 185 181 185 171 177 186 180 176 193 191 180 183 194 195 200 239 264 284 336 316 295 265 240 233 228 224 228 238 257 264 250 282 309
165 161 163 171 163 169 184 182 174 167 179 179 180 181 190 192 183 185 190 201 188 185 188 191 192 222 248 226 186 313 313 315 301 271 247 234 236 247 258 261 252 265 279
156 162 172 172 167 175 169 151 132 130 129 158 189 199 206 197 181 178 189 194 198 190 192 198 196 202 229 259 245 190 237 276 311 290 259 251 260 271 267 259 250 255 263
147 149 164 165 157 163 160 162 168 175 189 200 193 196 212 198 182 178 185 192 198 205 204 210 208 209 203 235 265 257 239 237 256 298 292 280 270 264 259 265 259 253 252
127 142 162 155 148 149 162 171 178 190 200 186 156 181 219 200 181 177 183 190 203 210 209 213 217 211 212 217 224 245 258 267 249 254 284 293 292 272 259 250 242 247 249
124 131 152 150 152 152 164 172 181 187 185 182 182 195 217 202 194 188 185 193 209 212 215 215 219 216 223 225 229 227 227 236 239 243 263 283 288 284 272 253 246 243 246